Joplin, MO

8:24 PM CST on November 21, 2019 (GMT -0600)
Joplin Regional

Weather History for KJLN - September, 2019

Change the Weather History Date:

Thursday, September 5, 2019

  Actual Average Record
Temperature  
Mean Temperature 80 °F 75 °F  
Max Temperature 90 °F 87 °F 103 °F (1998)
Min Temperature 71 °F 64 °F 44 °F (1974)
Degree Days  
Heating Degree Days 0 0  
Month to date heating degree days 0 0  
Since 1 July heating degree days 0 1  
Cooling Degree Days 16 10  
Month to date cooling degree days 70 55  
Year to date cooling degree days 1321 1482  
Growing Degree Days 30 (Base 50)    
Moisture  
Dew Point 71 °F    
Average Humidity 77    
Maximum Humidity 100    
Minimum Humidity 52    
Precipitation  
Precipitation 0.00 in 0.17 in 1.68 in (1951)
Month to date precipitation 0.00 0.80  
Year to date precipitation 48.89 31.77  
Sea Level Pressure  
Sea Level Pressure 30.06 in    
Wind  
Wind Speed 4 mph ()    
Max Wind Speed 13 mph    
Max Gust Speed 20 mph    
Visibility 8.8 miles    
Events Fog    
T = Trace of Precipitation, MM = Missing Value Source: Averaged Metar Reports

Daily Weather History Graph

Daily Weather History Graph

Search for Another Location

Airport or City:

Astronomy

Sep. 05, 2019 Rise Set
Actual Time 6:51 AM CDT 7:41 PM CDT
Civil Twilight 6:25 AM CDT 8:07 PM CDT
Nautical Twilight 5:54 AM CDT 8:38 PM CDT
Astronomical Twilight 5:21 AM CDT 9:10 PM CDT
Moon 1:50 PM CDT (9/5) No Moon Set
Length of Visible Light 13h 42m
Length of Day
12h 49m
Waxing Crescent, 45% of the Moon is Illuminated
Sep 5
Waxing Crescent
Sep 5
First Quarter
Sep 13
Full
Sep 21
Last Quarter
Sep 28
New

Hourly Weather History & Observations

Time (CDT) Temp. Heat Index Dew Point Humidity Pressure Visibility Wind Dir Wind Speed Gust Speed Precip Events Conditions
12:53 AM 72.0 °F - 71.1 °F 97% 30.09 in 9.0 mi Calm Calm - N/A   Clear
1:53 AM 72.0 °F - 70.0 °F 93% 30.09 in 8.0 mi ENE 3.5 mph - N/A   Clear
2:53 AM 72.0 °F - 71.1 °F 97% 30.09 in 7.0 mi Calm Calm - N/A   Clear
3:53 AM 72.0 °F - 71.1 °F 97% 30.08 in 7.0 mi ENE 4.6 mph - N/A   Clear
4:53 AM 71.1 °F - 70.0 °F 96% 30.08 in 5.0 mi East 3.5 mph - N/A   Clear
5:53 AM 71.1 °F - 70.0 °F 96% 30.08 in 6.0 mi ESE 3.5 mph - N/A   Clear
6:53 AM 71.1 °F - 70.0 °F 96% 30.09 in 6.0 mi SSE 4.6 mph - N/A Fog Patches of Fog
7:53 AM 73.9 °F - 73.0 °F 97% 30.10 in 6.0 mi SSE 4.6 mph - N/A   Clear
8:53 AM 79.0 °F - 75.0 °F 88% 30.11 in 8.0 mi SSE 4.6 mph - N/A   Clear
9:53 AM 82.0 °F 87.9 °F 73.9 °F 76% 30.11 in 10.0 mi Variable 4.6 mph - N/A   Clear
10:53 AM 84.9 °F 91.4 °F 73.0 °F 67% 30.11 in 10.0 mi WSW 6.9 mph - N/A   Clear
11:53 AM 87.1 °F 94.5 °F 73.0 °F 63% 30.10 in 10.0 mi WSW 9.2 mph - N/A   Clear
12:53 PM 88.0 °F 94.7 °F 72.0 °F 59% 30.09 in 10.0 mi Variable 6.9 mph - N/A   Scattered Clouds
1:53 PM 89.1 °F 95.0 °F 71.1 °F 55% 30.08 in 10.0 mi SW 9.2 mph - N/A   Scattered Clouds
2:53 PM 89.1 °F 94.1 °F 70.0 °F 53% 30.06 in 10.0 mi SW 6.9 mph - N/A   Partly Cloudy
3:53 PM 90.0 °F 95.4 °F 70.0 °F 52% 30.04 in 10.0 mi SW 9.2 mph - N/A   Partly Cloudy
4:53 PM 89.1 °F 94.1 °F 70.0 °F 53% 30.03 in 10.0 mi SW 12.7 mph - N/A   Scattered Clouds
5:53 PM 87.1 °F 92.0 °F 70.0 °F 57% 30.03 in 10.0 mi SW 6.9 mph - N/A   Clear
6:53 PM 86.0 °F 90.7 °F 70.0 °F 59% 30.02 in 10.0 mi SSW 6.9 mph - N/A   Clear
7:53 PM 81.0 °F 84.9 °F 71.1 °F 72% 30.01 in 10.0 mi South 4.6 mph - N/A   Clear
8:53 PM 79.0 °F - 70.0 °F 74% 30.02 in 10.0 mi SSE 3.5 mph - N/A   Clear
9:53 PM 75.9 °F - 70.0 °F 82% 30.03 in 10.0 mi South 4.6 mph - N/A   Clear
10:53 PM 75.0 °F - 70.0 °F 84% 30.01 in 10.0 mi South 5.8 mph - N/A   Clear
11:53 PM 73.9 °F - 69.1 °F 85% 30.00 in 10.0 mi South 6.9 mph - N/A   Clear